| time (UTC) | temp F | wind direction | speed MPH | gust MPH | rain 1hr in | rain 24hr in | rain mn in | humidity % | barometer mb |
| 20260504231552 | 72 | 184 | 0.0 | 2.0 | 0.00 | 0.05 | 0.05 | 31 | 1007.6 |
| 20260504231503 | 72 | 184 | 0.0 | 2.0 | 0.00 | 0.05 | 0.00 | 31 | 999.7 |
| 20260504230049 | 71 | 153 | 1.0 | 3.0 | 0.00 | 0.05 | 0.05 | 32 | 1007.8 |
| 20260504230004 | 71 | 145 | 0.0 | 3.0 | 0.00 | 0.05 | 0.00 | 34 | 999.8 |
| 20260504224555 | 70 | 130 | 2.0 | 4.0 | 0.00 | 0.05 | 0.05 | 34 | 1007.6 |
| 20260504224501 | 70 | 134 | 1.0 | 3.0 | 0.00 | 0.05 | 0.00 | 34 | 999.6 |
| 20260504223102 | 70 | 106 | 1.0 | 4.0 | 0.00 | 0.05 | 0.00 | 35 | 999.6 |
| 20260504223054 | 71 | 144 | 1.0 | 5.0 | 0.00 | 0.05 | 0.05 | 35 | 1007.7 |
| 20260504223001 | 70 | 115 | 1.0 | 4.0 | 0.00 | 0.05 | 0.00 | 35 | 999.7 |
| 20260504221604 | 71 | 86 | 2.0 | 6.0 | 0.00 | 0.05 | 0.05 | 34 | 1007.8 |
| 20260504221558 | 71 | 105 | 1.0 | 5.0 | 0.00 | 0.05 | 0.00 | 34 | 999.8 |
| 20260504220101 | 71 | 108 | 2.0 | 5.0 | 0.00 | 0.05 | 0.00 | 34 | 999.9 |
| 20260504220054 | 71 | 159 | 3.0 | 7.0 | 0.00 | 0.05 | 0.05 | 33 | 1007.8 |
| 20260504214604 | 71 | 96 | 1.0 | 4.0 | 0.00 | 0.05 | 0.00 | 34 | 1000.1 |
| 20260504214553 | 71 | 138 | 2.0 | 4.0 | 0.00 | 0.05 | 0.05 | 34 | 1008.0 |
| 20260504213101 | 71 | 273 | 4.0 | 8.0 | 0.00 | 0.05 | 0.05 | 34 | 1008.4 |
| 20260504213056 | 71 | 276 | 2.0 | 7.0 | 0.00 | 0.05 | 0.00 | 35 | 1000.4 |
| 20260504211554 | 72 | 285 | 1.0 | 4.0 | 0.00 | 0.05 | 0.00 | 31 | 1000.6 |
| 20260504211550 | 72 | 281 | 1.0 | 7.0 | 0.00 | 0.05 | 0.05 | 31 | 1008.4 |
| 20260504210057 | 73 | 119 | 2.0 | 4.0 | 0.00 | 0.05 | 0.05 | 30 | 1008.4 |
| 20260504204625 | 74 | 231 | 1.0 | 7.0 | 0.00 | 0.05 | 0.05 | 30 | 1008.4 |
| 20260504204608 | 74 | 267 | 0.0 | 4.0 | 0.00 | 0.05 | 0.00 | 31 | 1000.6 |
| 20260504203111 | 74 | 145 | 1.0 | 4.0 | 0.00 | 0.05 | 0.00 | 30 | 1000.6 |
| 20260504203051 | 74 | 144 | 1.0 | 4.0 | 0.00 | 0.05 | 0.05 | 30 | 1008.6 |
| 20260504201548 | 73 | 253 | 2.0 | 9.0 | 0.00 | 0.05 | 0.05 | 34 | 1008.8 |
| 20260504201546 | 73 | 277 | 1.0 | 7.0 | 0.00 | 0.05 | 0.00 | 35 | 1000.8 |
| 20260504200057 | 71 | 276 | 4.0 | 10.0 | 0.00 | 0.05 | 0.05 | 35 | 1009.0 |
| 20260504200043 | 71 | 295 | 3.0 | 9.0 | 0.00 | 0.05 | 0.00 | 35 | 1001.0 |
| 20260504194928 | 72 | 288 | 2.0 | 9.0 | 0.00 | 0.05 | 0.05 | 34 | 1009.4 |
| 20260504193049 | 71 | 280 | 1.0 | 8.0 | 0.00 | 0.05 | 0.05 | 39 | 1009.6 |
| 20260504193040 | 71 | 284 | 0.0 | 7.0 | 0.00 | 0.05 | 0.05 | 39 | 1001.6 |
| 20260504191553 | 71 | 276 | 3.0 | 11.0 | 0.00 | 0.05 | 0.05 | 36 | 1009.8 |
| 20260504191539 | 71 | 280 | 3.0 | 9.0 | 0.00 | 0.05 | 0.05 | 37 | 1001.6 |
| 20260504190059 | 69 | 107 | 2.0 | 5.0 | 0.00 | 0.05 | 0.05 | 40 | 1009.9 |
| 20260504190035 | 69 | 86 | 1.0 | 5.0 | 0.00 | 0.05 | 0.05 | 40 | 1001.8 |
| 20260504184604 | 68 | 83 | 1.0 | 2.0 | 0.00 | 0.05 | 0.05 | 43 | 1010.2 |
| 20260504184531 | 68 | 79 | 1.0 | 2.0 | 0.00 | 0.05 | 0.05 | 43 | 1002.2 |
| 20260504183100 | 67 | 77 | 1.0 | 4.0 | 0.00 | 0.05 | 0.05 | 42 | 1010.4 |
| 20260504183029 | 67 | 72 | 0.0 | 4.0 | 0.00 | 0.05 | 0.05 | 42 | 1002.5 |
| 20260504181551 | 65 | 60 | 1.0 | 5.0 | 0.01 | 0.05 | 0.05 | 50 | 1010.9 |
| 20260504181523 | 65 | 56 | 1.0 | 5.0 | 0.01 | 0.05 | 0.05 | 51 | 1002.8 |
| 20260504180055 | 62 | 67 | 1.0 | 2.0 | 0.05 | 0.05 | 0.05 | 65 | 1011.0 |
| 20260504180020 | 62 | 63 | 1.0 | 2.0 | 0.05 | 0.05 | 0.05 | 65 | 1003.0 |
| 20260504174554 | 60 | 0 | 1.0 | 2.0 | 0.05 | 0.05 | 0.05 | 70 | 1011.4 |
| 20260504174518 | 60 | 63 | 1.0 | 2.0 | 0.05 | 0.05 | 0.05 | 70 | 1003.3 |
| 20260504173052 | 59 | 109 | 1.0 | 2.0 | 0.05 | 0.05 | 0.05 | 72 | 1011.3 |
| 20260504173015 | 59 | 105 | 0.0 | 2.0 | 0.05 | 0.05 | 0.05 | 71 | 1003.4 |
| 20260504171551 | 62 | 59 | 0.0 | 3.0 | 0.04 | 0.04 | 0.04 | 65 | 1011.8 |
| 20260504171514 | 62 | 54 | 0.0 | 3.0 | 0.03 | 0.03 | 0.03 | 65 | 1003.9 |
| 20260504081553 | 63 | 146 | 0.0 | 2.0 | 0.00 | 0.00 | 0.00 | 36 | 1011.2 |
| 20260504081519 | 63 | 145 | 0.0 | 1.0 | 0.00 | 0.00 | 0.00 | 36 | 1004.4 |
| 20260504060104 | 58 | 159 | 0.0 | 3.0 | 0.00 | 0.00 | 0.00 | 32 | 1003.9 |
| 20260504050107 | 58 | 0 | 0.0 | 1.0 | 0.00 | 0.00 | 0.00 | 34 | 1010.6 |
| 20260504044558 | 58 | 55 | 0.0 | 1.0 | 0.00 | 0.00 | 0.00 | 33 | 1004.0 |
| 20260504044549 | 58 | 61 | 0.0 | 1.0 | 0.00 | 0.00 | 0.00 | 33 | 1010.6 |
| 20260504043100 | 59 | 56 | 0.0 | 0.0 | 0.00 | 0.00 | 0.00 | 32 | 1004.1 |
| 20260504043053 | 59 | 0 | 0.0 | 0.0 | 0.00 | 0.00 | 0.00 | 31 | 1010.8 |
| 20260504041602 | 59 | 56 | 0.0 | 2.0 | 0.00 | 0.00 | 0.00 | 35 | 1004.1 |
| 20260504041553 | 59 | 0 | 1.0 | 3.0 | 0.00 | 0.00 | 0.00 | 34 | 1010.8 |
| 20260504040056 | 58 | 148 | 0.0 | 1.0 | 0.00 | 0.00 | 0.00 | 36 | 1004.1 |
| 20260504034611 | 59 | 149 | 0.0 | 1.0 | 0.00 | 0.00 | 0.00 | 36 | 1004.0 |
| 20260504033055 | 60 | 149 | 0.0 | 1.0 | 0.00 | 0.00 | 0.00 | 34 | 1003.9 |
| 20260504033052 | 60 | 150 | 0.0 | 1.0 | 0.00 | 0.00 | 0.00 | 33 | 1010.6 |
| 20260504031555 | 61 | 151 | 0.0 | 0.0 | 0.00 | 0.00 | 0.00 | 32 | 1010.7 |
| 20260504030053 | 62 | 149 | 0.0 | 1.0 | 0.00 | 0.00 | 0.00 | 30 | 1003.7 |
| 20260504024555 | 64 | 150 | 0.0 | 0.0 | 0.00 | 0.00 | 0.00 | 26 | 1003.4 |
| 20260504024553 | 64 | 0 | 0.0 | 0.0 | 0.00 | 0.00 | 0.00 | 26 | 1010.2 |
| 20260504023053 | 68 | 149 | 0.0 | 0.0 | 0.00 | 0.00 | 0.00 | 23 | 1003.3 |
| 20260504023051 | 68 | 0 | 0.0 | 0.0 | 0.00 | 0.00 | 0.00 | 22 | 1010.2 |
| 20260504021554 | 72 | 149 | 0.0 | 0.0 | 0.00 | 0.00 | 0.00 | 19 | 1003.2 |
| 20260504021548 | 72 | 0 | 0.0 | 0.0 | 0.00 | 0.00 | 0.00 | 18 | 1010.0 |
| 20260504020107 | 77 | 150 | 0.0 | 0.0 | 0.00 | 0.00 | 0.00 | 14 | 1003.2 |
| 20260504020056 | 77 | 0 | 0.0 | 0.0 | 0.00 | 0.00 | 0.00 | 14 | 1010.0 |
| 20260504014616 | 79 | 152 | 0.0 | 1.0 | 0.00 | 0.00 | 0.00 | 11 | 1010.0 |
| 20260504014558 | 79 | 150 | 0.0 | 1.0 | 0.00 | 0.00 | 0.00 | 12 | 1003.2 |
| 20260504013108 | 80 | 145 | 0.0 | 1.0 | 0.00 | 0.00 | 0.00 | 12 | 1003.3 |
| 20260504013054 | 80 | 146 | 0.0 | 1.0 | 0.00 | 0.00 | 0.00 | 11 | 1010.1 |
| 20260504011557 | 78 | 136 | 0.0 | 2.0 | 0.00 | 0.00 | 0.00 | 12 | 1010.1 |
| 20260504011548 | 78 | 134 | 0.0 | 2.0 | 0.00 | 0.00 | 0.00 | 12 | 1003.3 |
| 20260504010058 | 77 | 130 | 0.0 | 3.0 | 0.00 | 0.00 | 0.00 | 12 | 1010.4 |
| 20260504010047 | 77 | 129 | 1.0 | 3.0 | 0.00 | 0.00 | 0.00 | 12 | 1003.4 |
| 20260504004552 | 78 | 168 | 0.0 | 2.0 | 0.00 | 0.00 | 0.00 | 12 | 1010.5 |
| 20260504004546 | 78 | 168 | 0.0 | 2.0 | 0.00 | 0.00 | 0.00 | 12 | 1003.6 |
| 20260504003051 | 79 | 272 | 0.0 | 6.0 | 0.00 | 0.00 | 0.00 | 11 | 1010.6 |
| 20260504003045 | 79 | 276 | 0.0 | 4.0 | 0.00 | 0.00 | 0.00 | 11 | 1003.8 |
| 20260504001559 | 79 | 145 | 1.0 | 3.0 | 0.00 | 0.00 | 0.00 | 11 | 1010.7 |
| 20260504001546 | 79 | 144 | 1.0 | 3.0 | 0.00 | 0.00 | 0.00 | 11 | 1003.9 |
| 20260504000052 | 76 | 164 | 0.0 | 2.0 | 0.00 | 0.00 | 0.00 | 11 | 1010.8 |
| 20260504000041 | 76 | 163 | 0.0 | 2.0 | 0.00 | 0.00 | 0.00 | 12 | 1004.0 |
| 20260503234552 | 77 | 110 | 1.0 | 3.0 | 0.00 | 0.00 | 0.00 | 11 | 1011.0 |
| 20260503234540 | 77 | 107 | 1.0 | 3.0 | 0.00 | 0.00 | 0.00 | 11 | 1004.1 |
| 20260503233054 | 77 | 141 | 0.0 | 3.0 | 0.00 | 0.00 | 0.00 | 11 | 1010.9 |
| 20260503233039 | 77 | 139 | 0.0 | 2.0 | 0.00 | 0.00 | 0.00 | 12 | 1004.2 |